[[{"header":{"parameterUnit":"m.s-1","parameterCategory":2,"la1":30.2991,"la2":30.254,"lo1":-89.0895,"lo2":-89.0444,"dy":0.0017,"dx":0.0017,"nx":28,"ny":28,"refTime":"2024-08-19T21:00:00:Z","depth":"0","parameterNumber":2,"parameterNumberName":"U-component_of_CURRENTS"},"data":[0,0,0,0,0,0,0,0,0,0,0,0,0,0,0,0,0,0,0,0,0,0,0,0,0,0,0,0,0,0,0,0,0,0,0,0,0,0,0,0,0,0,0,0,0,0,0,0,0,0,0,0,0,0,0,0,0,0,-0.2764,-0.2764,0,-0.2795,-0.2796,-0.2797,-0.2759,-0.2758,-0.2756,-0.2754,-0.2763,-0.2765,-0.2767,0,0,0,0,0,0,0,0,0,0,0,0,0,-0.2729,-0.273,-0.2764,-0.2764,-0.2764,-0.2795,-0.2796,-0.2797,-0.276,-0.2758,-0.2756,-0.2754,-0.2763,-0.2765,-0.2767,0,0,0,0,0,0,0,0,0,0,0,0,0,-0.2753,-0.273,-0.2764,-0.2747,-0.2746,-0.2795,-0.2796,-0.2797,-0.276,-0.2757,-0.2755,-0.2753,-0.2762,-0.2764,-0.2767,-0.2834,0,0,-0.2775,-0.2776,0,0,0,0,0,0,0,0,-0.2752,-0.2755,-0.275,-0.2749,-0.2747,-0.2768,-0.2787,-0.2807,-0.2761,-0.2758,-0.2754,-0.2751,-0.2763,-0.2765,-0.2781,-0.2834,-0.2834,-0.2775,-0.2777,-0.2778,-0.2779,0,0,0,0,0,0,0,-0.275,-0.2754,-0.278,-0.275,-0.2748,-0.2757,-0.2758,-0.2791,-0.2776,-0.2758,-0.2755,-0.2754,-0.2762,-0.2779,-0.2781,-0.2834,-0.2775,-0.2778,-0.2779,-0.278,-0.2918,-0.292,0,0,0,0,0,0,-0.274,-0.2752,-0.2779,-0.278,-0.274,-0.276,-0.276,-0.2766,-0.2776,-0.2774,-0.2756,-0.2752,-0.2775,-0.2778,-0.2781,-0.2829,-0.2778,-0.2781,-0.2782,-0.2916,-0.2919,-0.2921,0,0,0,0,0,0,-0.274,-0.2743,-0.2777,-0.2764,-0.2768,-0.2762,-0.277,-0.2768,-0.2775,-0.2774,-0.2772,-0.2761,-0.2774,-0.2777,-0.2812,-0.283,-0.2782,-0.2784,-0.2914,-0.2917,-0.292,-0.2946,0,0,0,0,0,0,-0.2739,-0.2743,-0.2747,-0.2764,-0.2769,-0.2801,-0.2772,-0.2771,-0.2777,-0.2772,-0.2779,-0.2778,-0.2772,-0.2808,-0.2814,-0.2833,-0.2786,-0.2911,-0.2915,-0.2919,-0.2942,-0.2949,-0.2955,0,0,0,0,0,-0.2738,-0.275,-0.2747,-0.275,-0.2774,-0.2802,-0.2806,-0.2795,-0.278,-0.2791,-0.2799,-0.2777,-0.2836,-0.2812,-0.2819,-0.2839,-0.2909,-0.2914,-0.2919,-0.2939,-0.2948,-0.2955,0,0,0,0,0,0,-0.2729,-0.2748,-0.2744,-0.2759,-0.2776,-0.2794,-0.2803,-0.2802,-0.2821,-0.2812,-0.2809,-0.2811,-0.2851,-0.2852,-0.2825,-0.2893,-0.2868,-0.2875,-0.2882,-0.289,-0.2896,-0.2876,-0.2789,0,0,0,0,0,-0.2733,-0.2748,-0.2766,-0.2777,-0.2788,-0.28,-0.281,-0.2806,-0.2822,-0.2826,-0.2835,-0.285,-0.2883,-0.2887,-0.2917,-0.2957,-0.2908,-0.2974,-0.2981,-0.2986,-0.2978,-0.2944,-0.2945,-0.2936,-0.2936,-0.2936,0,0,-0.2731,-0.2743,-0.2751,-0.2777,-0.279,-0.2821,-0.28,-0.2817,-0.2842,-0.2828,-0.2866,-0.2881,-0.2903,-0.2945,-0.2962,-0.2939,-0.2958,-0.2992,-0.2996,-0.2985,-0.2949,-0.2949,-0.2949,-0.2939,-0.2939,-0.2938,0,0,-0.2732,-0.275,-0.276,-0.279,-0.281,-0.283,-0.2836,-0.2861,-0.2868,-0.2917,-0.2911,-0.2934,-0.2988,-0.2994,-0.3009,-0.3075,-0.3004,-0.3086,-0.3089,-0.3057,-0.3056,-0.3055,-0.2956,-0.2946,-0.3076,-0.3076,-0.3076,0,-0.2723,-0.2729,-0.2768,-0.2795,-0.2805,-0.2838,-0.2848,-0.2893,-0.2924,-0.2926,-0.2931,-0.2992,-0.3014,-0.3043,-0.3067,-0.3087,-0.3028,-0.3052,-0.306,-0.3059,-0.3057,-0.2957,-0.2945,-0.3078,-0.3078,-0.3078,-0.3077,0,-0.273,-0.2741,-0.2755,-0.2798,-0.2837,-0.2845,-0.2909,-0.2942,-0.2961,-0.2984,-0.302,-0.3053,-0.3069,-0.3096,-0.3107,-0.3111,-0.3057,-0.3077,-0.3028,-0.3058,-0.2952,-0.2939,-0.3081,-0.308,-0.3079,-0.3079,0,0,-0.2654,-0.2734,-0.2729,-0.2736,-0.2821,-0.2839,-0.2917,-0.2953,-0.2963,-0.3028,-0.302,-0.311,-0.3099,-0.3116,-0.3123,-0.3107,-0.3049,-0.3083,-0.3081,-0.2961,-0.2913,-0.2813,-0.2788,-0.3059,-0.3059,-0.3058,-0.2827,0,-0.2614,-0.2634,-0.2699,-0.2724,-0.2732,-0.2814,-0.2868,-0.293,-0.2979,-0.2998,-0.3044,-0.3055,-0.3118,-0.3095,-0.3107,-0.3067,-0.3023,-0.3106,-0.2922,-0.2915,-0.2805,-0.2775,-0.2661,-0.2442,-0.2815,-0.2812,-0.2811,0,-0.2559,-0.2579,-0.2585,-0.264,-0.265,-0.2689,-0.2742,-0.2799,-0.288,-0.2907,-0.2954,-0.2987,-0.2998,-0.3035,-0.2983,-0.3025,-0.297,-0.2938,-0.2929,-0.2818,-0.2794,-0.2483,-0.2404,-0.2367,-0.2791,-0.2792,-0.2794,0,-0.2428,-0.248,-0.2464,-0.2493,-0.2591,-0.26,-0.2646,-0.2744,-0.2778,-0.2827,-0.2832,-0.2877,-0.2853,-0.2848,-0.2845,-0.2885,-0.2751,-0.2791,-0.2638,-0.2627,-0.2486,-0.2465,-0.233,-0.2724,-0.2724,-0.2725,-0.2726,0,-0.2332,-0.2318,-0.2394,-0.2395,-0.2383,-0.2485,-0.2488,-0.2556,-0.2624,-0.2646,-0.2752,-0.2753,-0.2807,-0.2777,-0.2778,-0.2657,-0.2692,-0.2608,-0.2565,-0.2489,-0.2472,-0.24,-0.2443,-0.2716,-0.2718,-0.272,-0.2721,0,-0.2197,-0.2245,-0.224,-0.2307,-0.2327,-0.2319,-0.2405,-0.2417,-0.2487,-0.2513,-0.2517,-0.2608,-0.2562,-0.2594,-0.2533,-0.252,-0.2376,-0.2388,-0.2265,-0.2214,-0.2041,-0.2091,-0.1913,-0.1856,-0.2147,-0.2143,-0.214,0,-0.2127,-0.2106,-0.2163,-0.2166,-0.2193,-0.2209,-0.2231,-0.2331,-0.236,-0.2432,-0.2425,-0.2403,-0.2399,-0.2271,-0.2229,-0.2132,-0.219,-0.1953,-0.2037,-0.1981,-0.2006,-0.2064,-0.2036,-0.1832,-0.1826,-0.1822,-0.1818,0,-0.2,-0.202,-0.2033,-0.2032,-0.2047,-0.2073,-0.2107,-0.2116,-0.2224,-0.224,-0.2246,-0.2235,-0.2142,-0.2009,-0.1891,-0.1848,-0.189,-0.1854,-0.1839,-0.1772,-0.1782,-0.1723,-0.2003,-0.1779,-0.1783,-0.1786,-0.1788,-0.1789,-0.1904,-0.1879,-0.1892,-0.1885,-0.191,-0.1913,-0.1881,-0.1939,-0.1949,-0.1948,-0.2026,-0.1959,-0.1861,-0.1691,-0.1616,-0.1443,-0.1579,-0.1407,-0.1467,-0.1525,-0.1496,-0.1659,-0.1386,-0.1388,-0.1389,-0.1391,-0.1392,0,-0.177,-0.1757,-0.1743,-0.1734,-0.1706,-0.1766,-0.1781,-0.1732,-0.1693,-0.173,-0.1706,-0.1623,-0.1447,-0.1373,-0.1208,-0.1101,-0.1104,-0.1073,-0.1145,-0.1133,-0.1275,-0.129,-0.0933,-0.0934,-0.0934,-0.0934,-0.0934,-0.0934,-0.1694,-0.1635,-0.1627,-0.153,-0.152,-0.1436,-0.1413,-0.1378,-0.1373,-0.1309,-0.129,-0.1324,-0.1273,-0.1233,-0.1033,-0.0941,-0.094,-0.0882,-0.0941,-0.1075,-0.1112,-0.1149,-0.117,-0.0794,-0.0794,-0.0739,-0.0739,-0.0739]},{"header":{"parameterUnit":"m.s-1","parameterCategory":2,"la1":30.2991,"la2":30.254,"lo1":-89.0895,"lo2":-89.0444,"dy":0.0017,"dx":0.0017,"nx":28,"ny":28,"refTime":"2024-08-19T21:00:00:Z","depth":"0","parameterNumber":3,"parameterNumberName":"V-component_of_CURRENTS"},"data":[0,0,0,0,0,0,0,0,0,0,0,0,0,0,0,0,0,0,0,0,0,0,0,0,0,0,0,0,0,0,0,0,0,0,0,0,0,0,0,0,0,0,0,0,0,0,0,0,0,0,0,0,0,0,0,0,0,0,-0.0548,-0.0548,0,-0.0544,-0.0543,-0.0543,-0.0539,-0.0539,-0.0539,-0.0539,-0.0456,-0.0454,-0.0452,0,0,0,0,0,0,0,0,0,0,0,0,0,-0.0542,-0.0542,-0.0548,-0.0548,-0.0548,-0.0544,-0.0543,-0.0543,-0.0539,-0.0539,-0.0539,-0.0539,-0.0457,-0.0454,-0.0451,0,0,0,0,0,0,0,0,0,0,0,0,0,-0.0541,-0.0542,-0.0548,-0.0546,-0.0545,-0.0544,-0.0543,-0.0543,-0.0539,-0.0539,-0.0539,-0.0539,-0.0457,-0.0454,-0.0451,-0.0431,0,0,-0.0441,-0.044,0,0,0,0,0,0,0,0,-0.0541,-0.0542,-0.0546,-0.0546,-0.0546,-0.0542,-0.0511,-0.0502,-0.0539,-0.0541,-0.0539,-0.0539,-0.0478,-0.0473,-0.0473,-0.0427,-0.0424,-0.0441,-0.0439,-0.0437,-0.0436,0,0,0,0,0,0,0,-0.0541,-0.0542,-0.0546,-0.0546,-0.0546,-0.0541,-0.0541,-0.0509,-0.0508,-0.0541,-0.0541,-0.0541,-0.0477,-0.0476,-0.047,-0.0423,-0.0441,-0.0438,-0.0436,-0.0434,-0.0351,-0.0351,0,0,0,0,0,0,-0.0543,-0.0542,-0.0546,-0.0546,-0.0544,-0.0541,-0.0541,-0.0543,-0.051,-0.0506,-0.0541,-0.0541,-0.0482,-0.0474,-0.0467,-0.0449,-0.0437,-0.0434,-0.0432,-0.0352,-0.0351,-0.0351,0,0,0,0,0,0,-0.0543,-0.0544,-0.0546,-0.0544,-0.0544,-0.0541,-0.0544,-0.0543,-0.0544,-0.0511,-0.0505,-0.0543,-0.0481,-0.0472,-0.0451,-0.0445,-0.0433,-0.043,-0.0352,-0.0351,-0.0351,-0.0407,0,0,0,0,0,0,-0.0543,-0.0544,-0.0547,-0.0544,-0.0544,-0.055,-0.0544,-0.0543,-0.0544,-0.0544,-0.051,-0.0503,-0.048,-0.0456,-0.0448,-0.0441,-0.0427,-0.0352,-0.0352,-0.0351,-0.0406,-0.0409,-0.0412,0,0,0,0,0,-0.0543,-0.0551,-0.0547,-0.0547,-0.0548,-0.055,-0.055,-0.0547,-0.0544,-0.0548,-0.053,-0.0504,-0.0447,-0.0454,-0.0444,-0.0436,-0.0352,-0.0352,-0.0351,-0.0405,-0.0408,-0.0412,0,0,0,0,0,0,-0.0552,-0.0551,-0.0547,-0.0555,-0.0553,-0.055,-0.0553,-0.055,-0.054,-0.0539,-0.0507,-0.0498,-0.0476,-0.0447,-0.0456,-0.0409,-0.0392,-0.0389,-0.0436,-0.0439,-0.0442,-0.0453,-0.0424,0,0,0,0,0,-0.0555,-0.0562,-0.0556,-0.0564,-0.0561,-0.0556,-0.0557,-0.0556,-0.0548,-0.0544,-0.052,-0.0491,-0.0465,-0.0448,-0.0421,-0.0396,-0.036,-0.0381,-0.0384,-0.0387,-0.0388,-0.0335,-0.0333,-0.0349,-0.0349,-0.0349,0,0,-0.0564,-0.0563,-0.0569,-0.0567,-0.0564,-0.0574,-0.0557,-0.0562,-0.0569,-0.0534,-0.053,-0.0502,-0.0462,-0.0442,-0.0427,-0.0417,-0.0363,-0.0386,-0.0389,-0.0389,-0.0334,-0.0332,-0.0331,-0.0349,-0.0349,-0.0349,0,0,-0.0584,-0.0581,-0.059,-0.0592,-0.059,-0.0589,-0.0591,-0.0585,-0.0578,-0.0574,-0.0547,-0.0518,-0.0483,-0.0452,-0.0433,-0.0431,-0.0383,-0.0417,-0.0438,-0.0386,-0.0385,-0.0383,-0.0337,-0.0331,-0.0416,-0.0416,-0.0416,0,-0.0593,-0.0603,-0.0593,-0.0603,-0.0611,-0.0598,-0.0612,-0.0606,-0.0596,-0.0586,-0.0579,-0.0523,-0.0488,-0.0455,-0.0458,-0.0437,-0.0404,-0.0432,-0.0391,-0.0389,-0.0386,-0.0339,-0.0331,-0.0418,-0.0418,-0.0418,-0.0417,0,-0.0617,-0.0627,-0.0634,-0.0644,-0.0652,-0.0662,-0.0655,-0.0652,-0.0642,-0.0631,-0.0599,-0.0555,-0.0521,-0.05,-0.0481,-0.044,-0.0423,-0.0406,-0.0387,-0.0388,-0.0338,-0.0329,-0.0422,-0.0421,-0.042,-0.042,0,0,-0.0629,-0.0646,-0.0648,-0.0663,-0.0674,-0.0686,-0.0691,-0.0686,-0.0686,-0.0661,-0.0649,-0.0599,-0.0571,-0.0546,-0.0505,-0.0458,-0.0409,-0.043,-0.0426,-0.0392,-0.0299,-0.0289,-0.0277,-0.0388,-0.0387,-0.0386,-0.0274,0,-0.0647,-0.0677,-0.0678,-0.0717,-0.0735,-0.0729,-0.074,-0.0737,-0.0718,-0.0702,-0.0646,-0.0618,-0.059,-0.0567,-0.052,-0.0436,-0.0387,-0.0441,-0.0296,-0.0292,-0.0289,-0.0267,-0.0259,-0.0159,-0.0265,-0.0263,-0.0262,0,-0.0666,-0.0688,-0.0722,-0.0757,-0.0762,-0.0784,-0.0794,-0.0797,-0.0768,-0.0748,-0.0711,-0.0668,-0.0601,-0.0574,-0.0439,-0.0477,-0.0397,-0.0329,-0.0323,-0.0287,-0.0264,-0.0172,-0.0138,-0.0014,-0.0248,-0.0249,-0.025,0,-0.0685,-0.0718,-0.0748,-0.0762,-0.0796,-0.0808,-0.0821,-0.0813,-0.0812,-0.0769,-0.0756,-0.0682,-0.0631,-0.0532,-0.0411,-0.0418,-0.026,-0.0246,-0.0159,-0.0158,-0.0108,-0.0104,0.0058,-0.0146,-0.0146,-0.0147,-0.0147,0,-0.0709,-0.0734,-0.0762,-0.0785,-0.0832,-0.0839,-0.0868,-0.0862,-0.0846,-0.0844,-0.0779,-0.0749,-0.0616,-0.052,-0.0415,-0.0264,-0.026,-0.0156,-0.0125,-0.0128,-0.0127,0.0017,0.0082,-0.0142,-0.0143,-0.0144,-0.0145,0,-0.0731,-0.0742,-0.0789,-0.0829,-0.0846,-0.0882,-0.0916,-0.0932,-0.09,-0.089,-0.0874,-0.0784,-0.0658,-0.0527,-0.0349,-0.0258,-0.0033,-0.0067,-0.0086,-0.0059,0.0127,0.0187,0.0388,0.0475,0.0054,0.0055,0.0056,0,-0.0738,-0.0765,-0.0827,-0.0867,-0.0889,-0.0937,-0.0973,-0.0968,-0.0977,-0.0911,-0.0907,-0.0784,-0.0704,-0.0453,-0.0277,-0.0087,0.0025,0.0048,0.004,0.0147,0.0239,0.0277,0.0338,0.009,0.0091,0.0092,0.0093,0,-0.0766,-0.0788,-0.0835,-0.0913,-0.0966,-0.1024,-0.1061,-0.1075,-0.1051,-0.1021,-0.0955,-0.0877,-0.0643,-0.0428,-0.0182,-0.0068,0.0149,0.0071,0.0202,0.0299,0.0335,0.0428,0.0001,0.01,0.01,0.0099,0.0099,0.0098,-0.0783,-0.083,-0.0889,-0.0967,-0.1032,-0.1092,-0.1124,-0.1142,-0.1145,-0.1084,-0.1004,-0.0862,-0.0537,-0.0199,-0.0059,0.0236,0.0232,0.0332,0.0403,0.0435,0.0504,0.0084,0.02,0.02,0.02,0.02,0.0199,0,-0.0797,-0.0858,-0.0935,-0.103,-0.1102,-0.112,-0.117,-0.1178,-0.1172,-0.1095,-0.1015,-0.0659,-0.0341,-0.0024,0.0387,0.0563,0.0611,0.0651,0.072,0.0772,0.0421,0.0407,0.0549,0.0549,0.0549,0.0549,0.0549,0.0549,-0.0809,-0.0882,-0.0931,-0.1062,-0.1124,-0.1188,-0.1207,-0.1205,-0.1151,-0.0988,-0.079,-0.063,-0.0137,0.0507,0.0887,0.0908,0.1079,0.1049,0.1161,0.092,0.0895,0.0872,0.0874,0.1112,0.1113,0.1482,0.1486,0.1489]}],[{"header":{"parameterUnit":"m.s-1","parameterCategory":2,"la1":30.2991,"la2":30.254,"lo1":-89.0895,"lo2":-89.0444,"dy":0.0017,"dx":0.0017,"nx":28,"ny":28,"refTime":"2024-08-19T21:00:00:Z","depth":"2","parameterNumber":2,"parameterNumberName":"U-component_of_CURRENTS"},"data":[0,0,0,0,0,0,0,0,0,0,0,0,0,0,0,0,0,0,0,0,0,0,0,0,0,0,0,0,0,0,0,0,0,0,0,0,0,0,0,0,0,0,0,0,0,0,0,0,0,0,0,0,0,0,0,0,0,0,-0.2462,-0.2463,0,-0.251,-0.2511,-0.2512,-0.2491,-0.249,-0.2488,-0.2487,-0.2602,-0.2606,-0.261,0,0,0,0,0,0,0,0,0,0,0,0,0,-0.2411,-0.2411,-0.2462,-0.2463,-0.2463,-0.251,-0.2511,-0.2512,-0.2491,-0.2489,-0.2488,-0.2486,-0.26,-0.2605,-0.261,0,0,0,0,0,0,0,0,0,0,0,0,0,-0.2444,-0.2412,-0.2462,-0.2458,-0.2458,-0.251,-0.2511,-0.2512,-0.2491,-0.2489,-0.2488,-0.2486,-0.2599,-0.2605,-0.2611,-0.2688,0,0,-0.263,-0.2633,0,0,0,0,0,0,0,0,-0.2442,-0.2446,-0.2458,-0.2458,-0.2458,-0.2492,-0.2535,-0.2574,-0.2492,-0.248,-0.2487,-0.2485,-0.2572,-0.258,-0.2594,-0.2694,-0.2699,-0.2631,-0.2635,-0.2638,-0.2639,0,0,0,0,0,0,0,-0.244,-0.2444,-0.2482,-0.2459,-0.2459,-0.2474,-0.2476,-0.2542,-0.2538,-0.2481,-0.2479,-0.2483,-0.2572,-0.2588,-0.2597,-0.27,-0.2631,-0.2637,-0.264,-0.2643,-0.2902,-0.2905,0,0,0,0,0,0,-0.2431,-0.2442,-0.2481,-0.2484,-0.2444,-0.2476,-0.2478,-0.2484,-0.2536,-0.2541,-0.2485,-0.2482,-0.2578,-0.2589,-0.2601,-0.2694,-0.2638,-0.2644,-0.2647,-0.2899,-0.2903,-0.2906,0,0,0,0,0,0,-0.243,-0.2434,-0.2479,-0.2463,-0.2469,-0.2478,-0.2485,-0.2486,-0.2498,-0.2538,-0.2544,-0.2495,-0.2577,-0.2592,-0.2667,-0.2698,-0.2646,-0.2652,-0.2896,-0.29,-0.2905,-0.2883,0,0,0,0,0,0,-0.2428,-0.2434,-0.2444,-0.2463,-0.247,-0.2512,-0.2487,-0.2488,-0.2503,-0.25,-0.255,-0.2558,-0.2577,-0.2657,-0.2673,-0.2706,-0.2657,-0.2892,-0.2898,-0.2903,-0.288,-0.2886,-0.2892,0,0,0,0,0,-0.2427,-0.2445,-0.2444,-0.2449,-0.248,-0.2513,-0.2519,-0.2519,-0.2506,-0.2521,-0.2556,-0.2556,-0.2705,-0.2665,-0.2683,-0.2718,-0.2889,-0.2896,-0.2903,-0.2877,-0.2885,-0.2891,0,0,0,0,0,0,-0.2431,-0.2445,-0.2444,-0.2466,-0.2488,-0.2509,-0.2527,-0.2527,-0.2567,-0.257,-0.2594,-0.2607,-0.2686,-0.2721,-0.2675,-0.2817,-0.28,-0.2811,-0.2774,-0.2782,-0.2788,-0.2743,-0.2662,0,0,0,0,0,-0.2437,-0.2443,-0.247,-0.2483,-0.2501,-0.2516,-0.2532,-0.2538,-0.257,-0.2583,-0.2617,-0.2672,-0.2735,-0.2767,-0.283,-0.2909,-0.2868,-0.295,-0.2955,-0.296,-0.2941,-0.2919,-0.2919,-0.2929,-0.2929,-0.2929,0,0,-0.2439,-0.2447,-0.2451,-0.2483,-0.2501,-0.2532,-0.2521,-0.2553,-0.258,-0.2597,-0.2653,-0.2698,-0.2764,-0.2842,-0.2882,-0.2869,-0.2933,-0.2969,-0.2971,-0.2949,-0.2926,-0.2924,-0.2922,-0.2934,-0.2933,-0.2932,0,0,-0.2441,-0.2461,-0.2469,-0.2495,-0.2528,-0.2551,-0.256,-0.2598,-0.2618,-0.269,-0.2704,-0.276,-0.2866,-0.2898,-0.2934,-0.3021,-0.2968,-0.3056,-0.3043,-0.3023,-0.302,-0.3016,-0.2927,-0.2916,-0.3055,-0.3055,-0.3055,0,-0.2447,-0.245,-0.2479,-0.2501,-0.2516,-0.2557,-0.2577,-0.2625,-0.2679,-0.2691,-0.2714,-0.2829,-0.2891,-0.2949,-0.2982,-0.3029,-0.2977,-0.2998,-0.3022,-0.3018,-0.3015,-0.2924,-0.2912,-0.3055,-0.3055,-0.3055,-0.3055,0,-0.2449,-0.2463,-0.2476,-0.2509,-0.2543,-0.2568,-0.2632,-0.2673,-0.2711,-0.2737,-0.2808,-0.2885,-0.2932,-0.2984,-0.3015,-0.3036,-0.2989,-0.3024,-0.298,-0.3011,-0.2915,-0.2903,-0.3054,-0.3054,-0.3055,-0.3055,0,0,-0.2413,-0.2465,-0.2463,-0.2472,-0.2543,-0.2564,-0.2634,-0.2681,-0.2697,-0.2781,-0.2785,-0.2918,-0.2923,-0.2964,-0.3005,-0.3006,-0.2949,-0.3,-0.2999,-0.2867,-0.2831,-0.2738,-0.2715,-0.297,-0.2969,-0.2968,-0.2757,0,-0.2395,-0.2414,-0.2453,-0.2479,-0.2495,-0.2561,-0.2608,-0.2665,-0.2723,-0.2751,-0.2824,-0.2866,-0.2928,-0.2942,-0.2955,-0.2961,-0.2921,-0.2998,-0.286,-0.2854,-0.2733,-0.2701,-0.2543,-0.2337,-0.2744,-0.2742,-0.274,0,-0.2359,-0.2377,-0.2391,-0.2436,-0.2451,-0.248,-0.2531,-0.2585,-0.2653,-0.2692,-0.2735,-0.2783,-0.2812,-0.2864,-0.2835,-0.2871,-0.2839,-0.2835,-0.2827,-0.2736,-0.274,-0.2386,-0.2298,-0.2719,-0.272,-0.2722,-0.2723,0,-0.2271,-0.2321,-0.2319,-0.2339,-0.2415,-0.2428,-0.2471,-0.2545,-0.2582,-0.2632,-0.2645,-0.2687,-0.2698,-0.2691,-0.2719,-0.2754,-0.2654,-0.2702,-0.2568,-0.2558,-0.2394,-0.2373,-0.2641,-0.2641,-0.2642,-0.2642,-0.2643,0,-0.221,-0.2207,-0.2273,-0.2275,-0.2279,-0.2355,-0.2368,-0.2424,-0.2483,-0.2501,-0.2589,-0.2598,-0.2658,-0.2639,-0.2649,-0.2551,-0.2588,-0.2525,-0.2499,-0.2383,-0.2364,-0.2697,-0.2706,-0.2634,-0.2636,-0.2638,-0.2639,0,-0.2104,-0.215,-0.2152,-0.2217,-0.2236,-0.2235,-0.2307,-0.232,-0.2386,-0.2406,-0.2416,-0.2492,-0.2459,-0.2489,-0.2458,-0.2435,-0.238,-0.2335,-0.2162,-0.2121,-0.2295,-0.2306,-0.2116,-0.2111,-0.2107,-0.2103,-0.2101,0,-0.2046,-0.2033,-0.2089,-0.2092,-0.2118,-0.2139,-0.2159,-0.2251,-0.2273,-0.2343,-0.2336,-0.233,-0.2317,-0.2218,-0.2171,-0.2081,-0.2225,-0.1877,-0.1942,-0.2247,-0.2241,-0.226,-0.2277,-0.1691,-0.1685,-0.168,-0.1676,0,-0.1936,-0.1955,-0.1969,-0.1971,-0.1987,-0.2009,-0.2044,-0.2052,-0.215,-0.2167,-0.2174,-0.2166,-0.2084,-0.1935,-0.1831,-0.1781,-0.1886,-0.177,-0.2111,-0.1877,-0.1837,-0.1836,-0.1867,-0.1631,-0.1636,-0.1639,-0.1642,-0.1643,-0.1846,-0.1824,-0.1839,-0.1833,-0.1858,-0.1858,-0.1827,-0.188,-0.1888,-0.1889,-0.1961,-0.1888,-0.1856,-0.1619,-0.1508,-0.1415,-0.1567,-0.151,-0.1528,-0.1551,-0.1568,-0.1527,-0.1261,-0.1263,-0.1265,-0.1267,-0.1268,0,-0.1721,-0.171,-0.1698,-0.1689,-0.1661,-0.172,-0.173,-0.1682,-0.1643,-0.1681,-0.1658,-0.1468,-0.134,-0.1319,-0.1106,-0.1045,-0.1065,-0.0993,-0.1045,-0.1088,-0.1127,-0.1128,-0.07,-0.0698,-0.0696,-0.0695,0,0,-0.165,-0.1595,-0.1586,-0.1493,-0.1485,-0.1403,-0.1379,-0.1344,-0.1341,-0.1285,-0.1248,-0.1313,-0.1318,-0.1039,-0.0944,-0.08,-0.0944,-0.0743,-0.1202,-0.131,-0.1348,-0.1423,-0.1471,0,0,0,0,0]},{"header":{"parameterUnit":"m.s-1","parameterCategory":2,"la1":30.2991,"la2":30.254,"lo1":-89.0895,"lo2":-89.0444,"dy":0.0017,"dx":0.0017,"nx":28,"ny":28,"refTime":"2024-08-19T21:00:00:Z","depth":"2","parameterNumber":3,"parameterNumberName":"V-component_of_CURRENTS"},"data":[0,0,0,0,0,0,0,0,0,0,0,0,0,0,0,0,0,0,0,0,0,0,0,0,0,0,0,0,0,0,0,0,0,0,0,0,0,0,0,0,0,0,0,0,0,0,0,0,0,0,0,0,0,0,0,0,0,0,-0.0225,-0.0225,0,-0.0213,-0.0213,-0.0213,-0.0206,-0.0206,-0.0206,-0.0206,-0.0151,-0.015,-0.0148,0,0,0,0,0,0,0,0,0,0,0,0,0,-0.0241,-0.0241,-0.0225,-0.0225,-0.0225,-0.0213,-0.0213,-0.0212,-0.0206,-0.0206,-0.0206,-0.0206,-0.0151,-0.015,-0.0148,0,0,0,0,0,0,0,0,0,0,0,0,0,-0.0232,-0.0241,-0.0225,-0.022,-0.0219,-0.0213,-0.0213,-0.0212,-0.0206,-0.0206,-0.0206,-0.0206,-0.0152,-0.015,-0.0148,-0.0136,0,0,-0.0141,-0.014,0,0,0,0,0,0,0,0,-0.0233,-0.0231,-0.0221,-0.022,-0.0219,-0.0211,-0.0198,-0.0185,-0.0206,-0.0211,-0.0206,-0.0206,-0.0167,-0.0164,-0.0162,-0.0133,-0.0131,-0.0141,-0.014,-0.0139,-0.0138,0,0,0,0,0,0,0,-0.0233,-0.0232,-0.022,-0.0221,-0.022,-0.0217,-0.0216,-0.0196,-0.0189,-0.0211,-0.021,-0.0208,-0.0166,-0.0164,-0.0161,-0.013,-0.0141,-0.0139,-0.0138,-0.0137,-0.0129,-0.013,0,0,0,0,0,0,-0.0234,-0.0232,-0.0221,-0.022,-0.0226,-0.0217,-0.0216,-0.0214,-0.019,-0.0187,-0.0208,-0.0208,-0.0168,-0.0163,-0.0159,-0.0166,-0.0139,-0.0137,-0.0136,-0.0128,-0.0129,-0.013,0,0,0,0,0,0,-0.0235,-0.0233,-0.0221,-0.0226,-0.0224,-0.0217,-0.0215,-0.0213,-0.0218,-0.0189,-0.0185,-0.0215,-0.0168,-0.0162,-0.0159,-0.0163,-0.0136,-0.0134,-0.0127,-0.0128,-0.013,-0.0165,0,0,0,0,0,0,-0.0235,-0.0234,-0.0238,-0.0226,-0.0224,-0.0229,-0.0215,-0.0213,-0.0217,-0.0216,-0.0193,-0.0188,-0.0167,-0.0162,-0.0157,-0.0159,-0.0132,-0.0125,-0.0127,-0.0129,-0.0163,-0.0168,-0.0172,0,0,0,0,0,-0.0236,-0.0244,-0.0239,-0.0238,-0.0229,-0.0229,-0.0229,-0.0223,-0.0217,-0.0226,-0.0215,-0.0189,-0.0171,-0.0161,-0.0155,-0.0157,-0.0124,-0.0127,-0.0129,-0.0161,-0.0167,-0.0172,0,0,0,0,0,0,-0.026,-0.0244,-0.0238,-0.0242,-0.024,-0.0228,-0.0236,-0.0229,-0.0227,-0.023,-0.0199,-0.0194,-0.0191,-0.0176,-0.0166,-0.0164,-0.0144,-0.0145,-0.0171,-0.0176,-0.0181,-0.0184,-0.0131,0,0,0,0,0,-0.0265,-0.026,-0.0252,-0.0255,-0.0257,-0.0247,-0.0248,-0.0247,-0.0241,-0.024,-0.0223,-0.0209,-0.0194,-0.0188,-0.0174,-0.0171,-0.0139,-0.0171,-0.0176,-0.018,-0.0181,-0.0134,-0.0133,-0.0138,-0.0138,-0.0138,0,0,-0.0275,-0.0264,-0.0263,-0.0259,-0.0256,-0.0271,-0.0248,-0.0258,-0.0269,-0.0233,-0.0243,-0.0222,-0.0198,-0.0197,-0.0195,-0.0185,-0.0165,-0.0183,-0.0187,-0.0185,-0.0136,-0.0135,-0.0134,-0.014,-0.0139,-0.0139,0,0,-0.0297,-0.0284,-0.0295,-0.0296,-0.0297,-0.0293,-0.0299,-0.0296,-0.0294,-0.0303,-0.0277,-0.0261,-0.025,-0.0226,-0.0213,-0.0237,-0.019,-0.0238,-0.0261,-0.0216,-0.0215,-0.0213,-0.0177,-0.0172,-0.0241,-0.0241,-0.0241,0,-0.0315,-0.0323,-0.0301,-0.0316,-0.0324,-0.0306,-0.0334,-0.0327,-0.0325,-0.032,-0.0317,-0.0286,-0.0261,-0.0242,-0.0253,-0.0244,-0.0216,-0.0238,-0.022,-0.0218,-0.0215,-0.0178,-0.0172,-0.0243,-0.0243,-0.0243,-0.0243,0,-0.0348,-0.0359,-0.0367,-0.0376,-0.0382,-0.0401,-0.0393,-0.0397,-0.0392,-0.038,-0.0366,-0.0334,-0.0313,-0.0303,-0.0285,-0.0259,-0.0244,-0.0227,-0.02,-0.0216,-0.0177,-0.017,-0.0246,-0.0246,-0.0245,-0.0244,0,0,-0.0386,-0.0391,-0.0396,-0.0413,-0.0419,-0.043,-0.0441,-0.0444,-0.0447,-0.0432,-0.0428,-0.0394,-0.0367,-0.0351,-0.0317,-0.0278,-0.0236,-0.0253,-0.0249,-0.0208,-0.0142,-0.0121,-0.0111,-0.0213,-0.0212,-0.0211,-0.0123,0,-0.0427,-0.0466,-0.0456,-0.05,-0.0525,-0.0508,-0.0521,-0.0516,-0.0499,-0.0488,-0.0437,-0.0422,-0.0387,-0.0376,-0.0332,-0.0261,-0.0218,-0.0262,-0.014,-0.0137,-0.0108,-0.0102,-0.0076,0.0005,-0.0115,-0.0114,-0.0113,0,-0.0471,-0.0491,-0.054,-0.0564,-0.0575,-0.0595,-0.0605,-0.0611,-0.0576,-0.0561,-0.0521,-0.048,-0.0422,-0.0392,-0.0272,-0.0303,-0.0228,-0.0169,-0.0164,-0.0126,-0.0102,0.0002,0.0024,-0.01,-0.0101,-0.0102,-0.0103,0,-0.051,-0.055,-0.0589,-0.0599,-0.0624,-0.064,-0.0652,-0.0635,-0.0637,-0.0596,-0.0585,-0.0513,-0.0474,-0.0376,-0.0262,-0.0263,-0.0126,-0.0109,-0.0018,-0.0016,0.004,0.0045,-0.0016,-0.0017,-0.0017,-0.0017,-0.0017,0,-0.0556,-0.0587,-0.0613,-0.0634,-0.069,-0.0686,-0.0723,-0.0714,-0.0696,-0.0693,-0.0622,-0.0595,-0.0467,-0.0375,-0.0271,-0.0126,-0.0129,-0.0016,0.0012,0.0025,0.0028,-0.0039,-0.0042,-0.0014,-0.0014,-0.0015,-0.0016,0,-0.0587,-0.0602,-0.0651,-0.0691,-0.0708,-0.0746,-0.0777,-0.0794,-0.0765,-0.0754,-0.0742,-0.0647,-0.0528,-0.0398,-0.0233,-0.0134,-0.0002,0.0052,0.0051,0.0078,0.0081,0.0074,0.0168,0.017,0.0171,0.0172,0.0173,0,-0.06,-0.0629,-0.0692,-0.0731,-0.0752,-0.0803,-0.0838,-0.0834,-0.0841,-0.0781,-0.0776,-0.0663,-0.0572,-0.0331,-0.0152,0.0037,0.0032,0.018,0.0188,0.0084,0.0102,0.0093,0.0085,0.0248,0.0249,0.025,0.0251,0,-0.0629,-0.0652,-0.0698,-0.0777,-0.083,-0.0886,-0.0924,-0.0939,-0.0918,-0.0887,-0.0818,-0.0736,-0.0505,-0.0275,-0.0034,0.008,0.0149,0.0211,0.0123,0.0186,0.0163,0.0179,0.0168,0.0262,0.0261,0.026,0.0259,0.0259,-0.0646,-0.0693,-0.0752,-0.083,-0.0894,-0.0953,-0.0984,-0.0999,-0.0998,-0.092,-0.0842,-0.0656,-0.0451,-0.0077,0.0086,0.025,0.0225,0.031,0.0305,0.0299,0.0281,0.0261,0.0375,0.0375,0.0374,0.0374,0.0374,0,-0.066,-0.0721,-0.0797,-0.0891,-0.0961,-0.0981,-0.1029,-0.1031,-0.1017,-0.0888,-0.0786,-0.0504,-0.0224,-0.0011,0.0262,0.04,0.0388,0.0436,0.0409,0.0398,0.0389,0.0374,0.0493,0.0494,0.0494,0.0494,0,0,-0.0673,-0.0745,-0.0793,-0.0921,-0.0984,-0.1046,-0.1064,-0.1049,-0.0955,-0.0835,-0.0652,-0.0439,-0.0165,0.0057,0.0227,0.038,0.035,0.0393,0.0288,0.0227,0.0216,0.0312,0.0277,0,0,0,0,0]}],[{"header":{"parameterUnit":"m.s-1","parameterCategory":2,"la1":30.2991,"la2":30.254,"lo1":-89.0895,"lo2":-89.0444,"dy":0.0017,"dx":0.0017,"nx":28,"ny":28,"refTime":"2024-08-19T21:00:00:Z","depth":"4","parameterNumber":2,"parameterNumberName":"U-component_of_CURRENTS"},"data":[0,0,0,0,0,0,0,0,0,0,0,0,0,0,0,0,0,0,0,0,0,0,0,0,0,0,0,0,0,0,0,0,0,0,0,0,0,0,0,0,0,0,0,0,0,0,0,0,0,0,0,0,0,0,0,0,0,0,-0.1481,-0.1482,0,-0.1501,-0.1501,-0.1501,-0.1501,-0.1501,-0.1501,-0.1501,-0.1512,-0.1512,-0.1513,0,0,0,0,0,0,0,0,0,0,0,0,0,-0.1404,-0.1406,-0.1481,-0.1482,-0.1483,-0.1501,-0.1501,-0.1501,-0.1501,-0.1501,-0.1501,-0.1502,-0.1512,-0.1512,-0.1513,0,0,0,0,0,0,0,0,0,0,0,0,0,-0.1428,-0.1406,-0.1481,-0.1488,-0.1489,-0.1501,-0.1501,-0.15,-0.1501,-0.1501,-0.1501,-0.1502,-0.1512,-0.1512,-0.1513,-0.151,0,0,-0.1513,-0.1513,0,0,0,0,0,0,0,0,-0.1427,-0.1431,-0.1486,-0.1488,-0.1489,-0.1502,-0.1478,-0.1505,-0.1501,-0.1492,-0.1501,-0.1502,-0.151,-0.1511,-0.1509,-0.1511,-0.1511,-0.1513,-0.1514,-0.1514,-0.1514,0,0,0,0,0,0,0,-0.1425,-0.143,-0.1485,-0.1487,-0.1489,-0.1476,-0.148,-0.1482,-0.1497,-0.1493,-0.1494,-0.1503,-0.1511,-0.1508,-0.1509,-0.1512,-0.1513,-0.1514,-0.1514,-0.1514,-0.1567,-0.1568,0,0,0,0,0,0,-0.1433,-0.1429,-0.1484,-0.1486,-0.1462,-0.1478,-0.1482,-0.1494,-0.1497,-0.1499,-0.1502,-0.1503,-0.1508,-0.1509,-0.1509,-0.1559,-0.1514,-0.1514,-0.1514,-0.1566,-0.1567,-0.1569,0,0,0,0,0,0,-0.1432,-0.1438,-0.1484,-0.146,-0.1466,-0.148,-0.1494,-0.1495,-0.1519,-0.1505,-0.1506,-0.1529,-0.1508,-0.1509,-0.1537,-0.1557,-0.1514,-0.1514,-0.1564,-0.1566,-0.1568,-0.1625,0,0,0,0,0,0,-0.1429,-0.1437,-0.146,-0.1461,-0.1468,-0.1511,-0.1494,-0.1495,-0.1524,-0.1525,-0.1528,-0.1527,-0.1508,-0.1537,-0.1537,-0.1557,-0.1514,-0.1563,-0.1565,-0.1567,-0.1621,-0.1629,-0.1635,0,0,0,0,0,-0.1426,-0.1452,-0.1461,-0.1468,-0.1495,-0.1512,-0.1515,-0.1521,-0.1526,-0.1543,-0.1547,-0.1528,-0.1552,-0.1538,-0.1538,-0.1559,-0.1561,-0.1564,-0.1567,-0.1619,-0.1627,-0.1634,0,0,0,0,0,0,-0.1432,-0.1455,-0.1464,-0.1497,-0.1515,-0.1515,-0.1535,-0.1541,-0.1557,-0.1563,-0.1548,-0.1548,-0.1578,-0.1565,-0.1551,-0.1582,-0.1552,-0.1555,-0.1591,-0.1599,-0.1606,-0.1619,-0.1515,0,0,0,0,0,-0.1445,-0.1467,-0.1487,-0.1515,-0.1529,-0.1539,-0.1552,-0.1558,-0.1568,-0.1576,-0.1584,-0.1586,-0.1585,-0.1592,-0.1592,-0.1614,-0.1611,-0.1626,-0.1633,-0.1639,-0.1651,-0.1665,-0.1674,-0.1578,-0.1578,-0.1578,0,0,-0.1453,-0.147,-0.1483,-0.1518,-0.1531,-0.1558,-0.1547,-0.1576,-0.1596,-0.1575,-0.1617,-0.1614,-0.1597,-0.1617,-0.1629,-0.1613,-0.1667,-0.1642,-0.1647,-0.1656,-0.1669,-0.1678,-0.1687,-0.158,-0.1579,-0.1579,0,0,-0.1483,-0.1501,-0.1536,-0.1552,-0.1586,-0.1587,-0.1605,-0.1628,-0.1641,-0.1671,-0.1661,-0.1677,-0.1685,-0.1676,-0.1668,-0.1714,-0.1702,-0.1719,-0.1762,-0.1776,-0.1784,-0.1791,-0.1808,-0.1816,-0.1721,-0.1721,-0.1721,0,-0.1498,-0.154,-0.1549,-0.1585,-0.1603,-0.1607,-0.1644,-0.1652,-0.1683,-0.1698,-0.1694,-0.1719,-0.1706,-0.1723,-0.1737,-0.1728,-0.1741,-0.1731,-0.1785,-0.1792,-0.1798,-0.1813,-0.1821,-0.1724,-0.1724,-0.1723,-0.1723,0,-0.1549,-0.1587,-0.1607,-0.165,-0.167,-0.1698,-0.1712,-0.1742,-0.1754,-0.1758,-0.1795,-0.1784,-0.1799,-0.1795,-0.1778,-0.1819,-0.1817,-0.1792,-0.1764,-0.1811,-0.1824,-0.1831,-0.1728,-0.1727,-0.1726,-0.1726,0,0,-0.1566,-0.1633,-0.1644,-0.1666,-0.1705,-0.1718,-0.1761,-0.1792,-0.182,-0.184,-0.1881,-0.1876,-0.1881,-0.1875,-0.1865,-0.1877,-0.1926,-0.1865,-0.1864,-0.188,-0.1974,-0.1794,-0.1785,-0.1918,-0.192,-0.1921,-0.1967,0,-0.1607,-0.1673,-0.1705,-0.1756,-0.1778,-0.18,-0.1835,-0.1859,-0.1876,-0.1916,-0.1907,-0.1932,-0.1906,-0.1923,-0.1934,-0.1927,-0.1948,-0.1916,-0.1927,-0.1927,-0.176,-0.1787,-0.1926,-0.1973,-0.1974,-0.1976,-0.1976,0,-0.1637,-0.1677,-0.1739,-0.1791,-0.181,-0.1846,-0.1893,-0.1928,-0.1969,-0.1987,-0.2014,-0.2014,-0.204,-0.2009,-0.203,-0.2018,-0.2012,-0.2001,-0.2001,-0.1818,-0.176,-0.1914,-0.1989,-0.1988,-0.1987,-0.1986,-0.1986,0,-0.1596,-0.1689,-0.1733,-0.175,-0.182,-0.1861,-0.1901,-0.1949,-0.197,-0.2037,-0.2052,-0.2092,-0.2093,-0.2112,-0.207,-0.2073,-0.2082,-0.2073,-0.1912,-0.19,-0.2025,-0.2017,-0.2101,-0.2101,-0.2101,-0.2101,-0.2101,0,-0.158,-0.1618,-0.1722,-0.1735,-0.179,-0.1851,-0.1905,-0.1953,-0.2016,-0.2022,-0.2085,-0.2081,-0.2119,-0.2112,-0.2106,-0.2008,-0.2106,-0.1924,-0.1895,-0.2049,-0.2043,-0.2031,-0.2022,-0.2103,-0.2102,-0.2102,-0.2102,0,-0.1497,-0.1574,-0.1621,-0.1726,-0.1762,-0.1792,-0.1883,-0.1908,-0.1989,-0.2006,-0.2026,-0.2074,-0.2056,-0.2069,-0.2076,-0.2003,-0.1964,-0.191,-0.2077,-0.2057,-0.1781,-0.1775,-0.176,-0.1754,-0.1749,-0.1745,-0.1741,0,-0.1451,-0.1469,-0.1587,-0.1615,-0.1665,-0.173,-0.1764,-0.1868,-0.1884,-0.1962,-0.1948,-0.1971,-0.1978,-0.1854,-0.1891,-0.1866,-0.1833,-0.182,-0.1802,-0.177,-0.1745,-0.1747,-0.1748,-0.1733,-0.1732,-0.173,-0.1729,0,-0.1353,-0.1411,-0.1454,-0.1511,-0.1561,-0.1602,-0.1664,-0.1663,-0.176,-0.1852,-0.1811,-0.1789,-0.1754,-0.174,-0.1709,-0.1694,-0.1835,-0.1766,-0.1777,-0.1761,-0.1737,-0.1717,-0.1724,-0.1711,-0.1714,-0.1715,-0.1716,0,-0.1278,-0.1282,-0.1349,-0.1383,-0.1446,-0.1451,-0.1503,-0.1518,-0.1552,-0.1653,-0.1628,-0.1662,-0.1725,-0.1648,-0.1627,-0.1582,-0.1568,-0.153,-0.1554,-0.1574,-0.1482,-0.1422,-0.1275,0,0,0,0,0,-0.1194,-0.1185,-0.1211,-0.1244,-0.1303,-0.1335,-0.1421,-0.1476,-0.1573,-0.1497,-0.156,-0.1524,-0.1472,-0.1499,-0.1412,-0.1538,-0.1575,-0.143,-0.1545,-0.1612,-0.1633,-0.1537,0,0,0,0,0,0,-0.1135,-0.1158,-0.1164,-0.1122,-0.1117,-0.1158,-0.1207,-0.1278,-0.1252,-0.1359,-0.1342,-0.142,-0.1398,-0.149,-0.1375,-0.138,-0.1418,-0.1464,-0.1459,-0.16,-0.1619,-0.1636,-0.1544,0,0,0,0,0]},{"header":{"parameterUnit":"m.s-1","parameterCategory":2,"la1":30.2991,"la2":30.254,"lo1":-89.0895,"lo2":-89.0444,"dy":0.0017,"dx":0.0017,"nx":28,"ny":28,"refTime":"2024-08-19T21:00:00:Z","depth":"4","parameterNumber":3,"parameterNumberName":"V-component_of_CURRENTS"},"data":[0,0,0,0,0,0,0,0,0,0,0,0,0,0,0,0,0,0,0,0,0,0,0,0,0,0,0,0,0,0,0,0,0,0,0,0,0,0,0,0,0,0,0,0,0,0,0,0,0,0,0,0,0,0,0,0,0,0,-0.0047,-0.0047,0,-0.0024,-0.0023,-0.0023,0.0007,0.0008,0.0008,0.0009,0.0057,0.0057,0.0058,0,0,0,0,0,0,0,0,0,0,0,0,0,-0.0058,-0.0057,-0.0047,-0.0047,-0.0047,-0.0024,-0.0023,-0.0023,0.0007,0.0008,0.0008,0.0009,0.0056,0.0057,0.0058,0,0,0,0,0,0,0,0,0,0,0,0,0,-0.0044,-0.0057,-0.0047,-0.003,-0.0028,-0.0024,-0.0023,-0.0023,0.0007,0.0008,0.0008,0.0009,0.0056,0.0057,0.0059,0.0055,0,0,0.0063,0.0063,0,0,0,0,0,0,0,0,-0.0045,-0.0044,-0.0033,-0.0031,-0.0029,-0.0011,-0.0009,0.0004,0.0007,-0.0005,0.0009,0.0009,0.0035,0.0038,0.0042,0.0058,0.006,0.0063,0.0064,0.0064,0.0065,0,0,0,0,0,0,0,-0.0046,-0.0045,-0.0037,-0.0033,-0.003,-0.002,-0.0018,-0.0007,0.0013,-0.0004,-0.0002,-0.0001,0.0036,0.0041,0.0044,0.006,0.0063,0.0064,0.0065,0.0065,0.0057,0.0056,0,0,0,0,0,0,-0.0052,-0.0046,-0.0038,-0.0036,-0.0037,-0.0021,-0.0018,-0.0017,0.0012,0.0017,-0.0002,0.0,0.0038,0.0042,0.0046,0.0029,0.0064,0.0066,0.0066,0.0058,0.0057,0.0056,0,0,0,0,0,0,-0.0053,-0.0052,-0.0039,-0.0041,-0.0039,-0.0021,-0.002,-0.0017,-0.0014,0.0013,0.0019,-0.0004,0.0039,0.0044,0.0048,0.0032,0.0066,0.0067,0.0059,0.0058,0.0056,0.0005,0,0,0,0,0,0,-0.0053,-0.0052,-0.0055,-0.0042,-0.0039,-0.0042,-0.0021,-0.0017,-0.0015,-0.0013,0.0013,0.0019,0.004,0.0045,0.0049,0.0034,0.0069,0.0061,0.0059,0.0057,0.0008,0.0001,-0.0004,0,0,0,0,0,-0.0054,-0.0061,-0.0056,-0.0055,-0.0044,-0.0042,-0.004,-0.0025,-0.0016,-0.0019,-0.0004,0.0018,0.0035,0.0045,0.005,0.0035,0.0062,0.0059,0.0057,0.001,0.0003,-0.0004,0,0,0,0,0,0,-0.0069,-0.0058,-0.0052,-0.0056,-0.0053,-0.0038,-0.0039,-0.0031,-0.0022,-0.0019,0.0007,0.0013,0.0007,0.0026,0.0037,0.0025,0.0051,0.0049,0.0013,0.0007,0.0001,-0.0006,0.007,0,0,0,0,0,-0.0075,-0.0075,-0.0066,-0.0071,-0.007,-0.0057,-0.0055,-0.0047,-0.0037,-0.0032,-0.0016,-0.0003,0.0,0.0008,0.0015,0.0014,0.0044,0.0005,-0.0001,-0.0006,-0.001,0.0027,0.0025,0.0048,0.0048,0.0048,0,0,-0.0082,-0.0077,-0.0077,-0.0074,-0.0068,-0.0081,-0.0054,-0.0056,-0.0068,-0.0029,-0.0039,-0.0024,-0.0007,-0.0013,-0.0013,0.0004,0.0002,-0.0009,-0.0013,-0.0014,0.0025,0.0023,0.0021,0.0046,0.0047,0.0047,0,0,-0.0106,-0.0093,-0.0107,-0.0106,-0.0103,-0.0098,-0.0102,-0.0093,-0.0089,-0.0098,-0.0077,-0.0072,-0.0064,-0.0052,-0.0047,-0.008,-0.0034,-0.008,-0.0107,-0.0071,-0.0072,-0.0073,-0.0043,-0.004,-0.0077,-0.0077,-0.0077,0,-0.0118,-0.0134,-0.0112,-0.0128,-0.0135,-0.0111,-0.0136,-0.013,-0.0122,-0.0121,-0.011,-0.01,-0.0085,-0.0089,-0.0102,-0.0093,-0.0063,-0.0081,-0.0077,-0.0077,-0.0077,-0.0045,-0.0042,-0.008,-0.0079,-0.0079,-0.0079,0,-0.0155,-0.0169,-0.0177,-0.019,-0.0193,-0.0208,-0.02,-0.0202,-0.0195,-0.0186,-0.0187,-0.0164,-0.0155,-0.0153,-0.0139,-0.0135,-0.0113,-0.0092,-0.0057,-0.0082,-0.0048,-0.0043,-0.0084,-0.0083,-0.0082,-0.0081,0,0,-0.0189,-0.0202,-0.0209,-0.0226,-0.0229,-0.0238,-0.0254,-0.0261,-0.027,-0.0254,-0.0262,-0.0254,-0.0227,-0.022,-0.0195,-0.0165,-0.0142,-0.013,-0.0127,-0.0095,-0.0061,-0.0041,-0.0033,-0.0113,-0.0112,-0.0112,-0.0039,0,-0.0233,-0.0277,-0.0272,-0.0318,-0.034,-0.0322,-0.0344,-0.034,-0.0326,-0.0324,-0.0287,-0.0288,-0.0256,-0.0252,-0.0218,-0.0166,-0.0131,-0.0164,-0.0046,-0.0043,-0.0017,-0.0028,-0.011,-0.0036,-0.0035,-0.0034,-0.0033,0,-0.0279,-0.0304,-0.0355,-0.0385,-0.0394,-0.0419,-0.0435,-0.0447,-0.0424,-0.0411,-0.0382,-0.0349,-0.0316,-0.0282,-0.0191,-0.021,-0.0144,-0.0094,-0.0089,-0.0048,-0.0014,-0.0004,-0.0024,-0.0025,-0.0025,-0.0026,-0.0027,0,-0.0315,-0.0363,-0.0407,-0.0417,-0.0446,-0.0468,-0.0484,-0.0476,-0.0483,-0.0458,-0.045,-0.0399,-0.0375,-0.0288,-0.0191,-0.0186,-0.008,-0.0057,0.0027,0.0029,0.0014,0.0014,0.0016,0.0016,0.0016,0.0016,0.0016,0,-0.0358,-0.0393,-0.0432,-0.0453,-0.0515,-0.0516,-0.056,-0.0558,-0.0552,-0.0554,-0.0497,-0.0476,-0.0373,-0.0297,-0.0202,-0.0078,-0.0084,0.002,0.005,-0.0012,-0.0015,0.0017,0.0016,0.0019,0.0018,0.0017,0.0017,0,-0.0378,-0.0404,-0.0456,-0.0507,-0.0529,-0.057,-0.0612,-0.0633,-0.062,-0.0617,-0.0611,-0.0534,-0.0432,-0.0322,-0.0182,-0.0095,0.002,0.0069,-0.0014,0.001,0.011,0.0105,0.0171,0.0172,0.0174,0.0175,0.0175,0,-0.0386,-0.0416,-0.0491,-0.0533,-0.056,-0.0618,-0.0657,-0.0668,-0.0676,-0.0642,-0.0637,-0.055,-0.0483,-0.0272,-0.0157,0.0023,0.0056,0.0116,0.0121,0.0103,0.0126,0.012,0.0114,0.0177,0.0177,0.0178,0.0178,0,-0.0399,-0.0429,-0.0475,-0.0561,-0.0619,-0.0678,-0.0725,-0.0735,-0.0731,-0.0721,-0.0639,-0.0526,-0.0409,-0.0255,-0.0123,0.0009,0.0074,0.0129,0.0128,0.0133,0.0112,0.0131,0.0124,0.0182,0.0181,0.0181,0.0181,0,-0.0405,-0.0446,-0.051,-0.0585,-0.0661,-0.0716,-0.074,-0.074,-0.0744,-0.0693,-0.0664,-0.0531,-0.0457,-0.0261,-0.0137,-0.0013,0.0031,0.0084,0.0086,0.0083,0.0037,-0.0004,0.0055,0,0,0,0,0,-0.0405,-0.0456,-0.0529,-0.0616,-0.0689,-0.0727,-0.0775,-0.0785,-0.0778,-0.0718,-0.0686,-0.0567,-0.0361,-0.0275,-0.0144,-0.0123,0.0037,0.0035,0.0094,0.0204,0.0199,0.0161,0,0,0,0,0,0,-0.0412,-0.0477,-0.0525,-0.0621,-0.0677,-0.0753,-0.0782,-0.0779,-0.0735,-0.0703,-0.0596,-0.0524,-0.0334,-0.0438,-0.0139,-0.0102,-0.0041,0.0129,0.0133,0.0206,0.0202,0.0198,0.0158,0,0,0,0,0]}]]